Terug naar catalogus

FENGYUN 1C DEB

ActiefSSO
NORAD 29938·DEBRIS·🇨🇳 China

Gelanceerd May 10, 1999 vanaf Taiyuan Satellite Launch Center

Loading…

Volgende Passages (komende 24 uur)

TLE

VersSource: Space-Track

Epoch: Sep 14, 2026, 09:41 UTC

1 29938U 99025JL  26257.40390535 -.00000011  00000-0  19106-4 0  9991
2 29938  98.8248 245.7207 0032342 253.6151 270.8928 14.07588198  9327

Volg FENGYUN 1C DEB in realtime met AllMySat

Download on the App Store